Simultaneous Nadir Overpasses (SNOs) Predictions

Prediction of SNOs between METOP-B and NOAA-19 Satellite Orbit:

Table of predicted SNOs for the next 14.0 days since TLE Epoch: 10/23/2015
Index Date (METOP-B) Time (METOP-B) Lat,Lon (METOP-B) SZA (METOP-B ) Date (NOAA-19) Time (NOAA-19) Lat,Lon (NOAA-19) SZA (NOAA-19 ) Distance(km) Time Diff (sec)
1 10/26/2015 09:13:21 -75.75,-138.73 91.92 10/26/2015 09:12:12 -75.75,-141.18 91.95 66.80 69
2 10/26/2015 10:04:10 75.34, 27.31 87.67 10/26/2015 10:03:11 75.36, 27.31 87.69 2.84 59
3 10/26/2015 10:54:51 -75.36,-165.31 92.31 10/26/2015 10:54:06 -75.36,-165.42 92.30 3.12 45
4 10/26/2015 11:45:32 75.32, 1.91 87.67 10/26/2015 11:45:13 75.34, 1.86 87.70 3.27 19
5 10/26/2015 12:36:14 -75.29, 169.15 92.36 10/26/2015 12:36:07 -75.30, 169.28 92.34 4.03 7
6 10/26/2015 13:26:54 75.30, -23.50 87.67 10/26/2015 13:27:14 75.28, -23.44 87.65 2.58 20
7 10/26/2015 14:17:36 -75.27, 143.74 92.35 10/26/2015 14:18:09 -75.28, 143.84 92.34 2.96 33
8 10/26/2015 15:08:16 75.27, -48.90 87.67 10/26/2015 15:09:16 75.26, -48.88 87.66 1.86 60
9 10/26/2015 15:58:58 -75.24, 118.34 92.35 10/26/2015 16:00:11 -75.26, 118.39 92.34 2.01 73
10 11/05/2015 21:46:22 75.92,-146.47 91.67 11/05/2015 21:45:16 75.92,-149.81 91.62 90.49 66
11 11/05/2015 22:37:15 -75.39, 19.17 88.89 11/05/2015 22:36:01 -75.40, 19.18 88.88 1.00 74
12 11/05/2015 23:27:55 75.39,-173.51 91.13 11/05/2015 23:27:07 75.39,-173.58 91.13 1.99 48
13 11/06/2015 00:18:37 -75.37, -6.24 88.89 11/06/2015 00:18:03 -75.38, -6.26 88.88 1.43 34
14 11/06/2015 01:09:17 75.36, 161.08 91.12 11/06/2015 01:09:09 75.38, 160.98 91.13 3.24 8
15 11/06/2015 01:59:59 -75.35, -31.64 88.89 11/06/2015 02:00:05 -75.36, -31.71 88.87 2.47 6
16 11/06/2015 02:50:39 75.34, 135.68 91.12 11/06/2015 02:51:10 75.31, 135.67 91.09 3.46 31
17 11/06/2015 03:41:21 -75.33, -57.05 88.89 11/06/2015 03:42:06 -75.30, -57.01 88.92 3.40 45
18 11/06/2015 04:32:01 75.32, 110.27 91.12 11/06/2015 04:33:12 75.29, 110.22 91.10 3.33 71
19 11/06/2015 05:22:52 -74.87, -83.69 89.33 11/06/2015 05:24:00 -74.91, -81.33 89.27 68.46 68
